This demonstration page uses our WeatherBlox Daily Observations layout. Learn more.

Left ArrowRight Arrow

Hourly Observations for September 26, 2015

Temp ( °F °C ) Dew Point ( °F °C ) Humidity (%) Winds ( mph kmh ) Pressure ( in mb ) Visibility ( mi km ) Precip ( " mm )
12:51 am 00:51 Clear 72 22.2 54 12.2 53 53 SSE 6 9 29.93 1013 10 16.0934 0 0
1:51 am 01:51 Clear 71 21.7 54 12.2 55 55 SSE 8 13 29.92 1013 10 16.0934 0 0
2:51 am 02:51 Clear 69 20.6 54 12.2 59 59 ESE 7 11 29.92 1013 10 16.0934 0 0
3:51 am 03:51 Clear 70 21.1 54 12.2 57 57 ESE 7 11 29.92 1013 10 16.0934 0 0
4:51 am 04:51 Clear 69 20.6 54 12.2 59 59 ESE 9 15 29.93 1013 10 16.0934 0 0
5:51 am 05:51 Clear 70 21.1 53 11.7 55 55 SE 10 17 29.94 1014 10 16.0934 0 0
6:51 am 06:51 Sunny 69 20.6 54 12.2 59 59 SE 9 15 29.96 1015 10 16.0934 0 0
7:51 am 07:51 Sunny 75 23.9 54 12.2 48 48 SE 10 17 29.97 1015 10 16.0934 0 0
8:51 am 08:51 Sunny 78 25.6 54 12.2 43 43 SE 10 17 29.98 1015 10 16.0934 0 0
9:51 am 09:51 Sunny 81 27.2 54 12.2 39 39 ESE 9 15 29.97 1015 10 16.0934 0 0
10:51 am 10:51 Sunny 83 28.3 54 12.2 37 37 VRB 3 6 29.95 1014 10 16.0934 0 0
11:51 am 11:51 Sunny 86 30 50 10 29 29 ESE 10 17 29.93 1014 10 16.0934 0 0
12:51 pm 12:51 Sunny 89 31.7 51 10.6 27 27 S 10 17 29.89 1012 10 16.0934 0 0
1:51 pm 13:51 Sunny 89 31.7 50 10 26 26 VRB 6 9 29.86 1011 10 16.0934 0 0
2:51 pm 14:51 Sunny 90 32.2 47 8.3 23 23 SSW 7 11 29.83 1010 10 16.0934 0 0
3:51 pm 15:51 Sunny 92 33.3 44 6.7 19 19 S 10 17 29.8 1009 10 16.0934 0 0
4:51 pm 16:51 Sunny 90 32.2 44 6.7 20 20 VRB 6 9 29.8 1009 10 16.0934 0 0
5:51 pm 17:51 Sunny 87 30.6 47 8.3 25 25 WSW 5 7 29.8 1009 10 16.0934 0 0
6:51 pm 18:51 Clear 82 27.8 51 10.6 34 34 SW 5 7 29.8 1009 10 16.0934 0 0
7:51 pm 19:51 Clear 78 25.6 53 11.7 42 42 Calm 29.82 1010 10 16.0934 0 0
8:51 pm 20:51 Clear 73 22.8 56 13.3 55 55 E 7 11 29.83 1010 10 16.0934 0 0
9:51 pm 21:51 Clear 72 22.2 54 12.2 53 53 E 6 9 29.83 1010 10 16.0934 0 0
10:51 pm 22:51 Clear 70 21.1 54 12.2 57 57 W 6 9 29.83 1010 10 16.0934 0 0
11:51 pm 23:51 Clear 67 19.4 55 12.8 66 66 NW 3 6 29.83 1010 10 16.0934 0 0

Powered by AerisWeather